Location: Montreal
(45.5087°N, 73.5540°W)
Time: 01:26:06
(UTC-04:00)

A-11 Canister half - Visible Passes

Search period start: 08 June 2026 00:00
Search period end: 18 June 2026 00:00
Orbit: 1515 x 1685 km, 47.2° (Epoch: 7 June)

Date Brightness Start Highest point End Pass type
(mag) Time Alt. Az. Time Alt. Az. Time Alt. Az.
8 Jun 9.7 22:30:34 10° WNW 22:39:01 38° SW 22:45:02 18° SSE visible
9 Jun 9.7 22:07:26 10° WNW 22:16:03 40° SW 22:23:04 15° SSE visible
10 Jun 9.7 21:44:19 10° WNW 21:53:05 42° SW 22:01:09 12° SSE visible
10 Jun 10.7 23:54:25 10° WSW 23:55:50 10° WSW 23:57:16 10° SW visible
11 Jun 9.6 21:21:13 10° WNW 21:30:07 45° SW 21:38:45 10° SSE visible
11 Jun 10.7 23:30:01 10° WSW 23:32:57 12° WSW 23:35:52 10° SW visible
12 Jun 10.7 23:06:11 10° W 23:10:03 13° WSW 23:13:54 10° SSW visible
13 Jun 10.7 22:42:34 10° W 22:47:09 15° WSW 22:51:41 10° SSW visible
14 Jun 10.7 22:19:04 10° W 22:24:15 16° SW 22:29:22 10° SSW visible
15 Jun 10.7 21:55:39 10° W 22:01:20 18° SW 22:06:57 10° SSW visible
16 Jun 10.7 21:32:17 10° W 21:38:25 19° SW 21:44:27 10° SSW visible
17 Jun 10.7 21:08:58 10° W 21:15:31 21° SW 21:21:55 10° S visible
